This is the latest recevied weather packets stored in our database for station/object M0JUI-1. If no packets are shown the sender has not sent any weather packets the latest 10 day(s).
| Time | Temp. | Humidity | Pressure | Rain* | Wind** | Luminosity | Snow |
|---|---|---|---|---|---|---|---|
| 1778071347 | 11.67° C | 81% | 1015.2 hPa | 0 mm | - | 275 W/m² | - |
| 1778071048 | 11.67° C | 80% | 1015.1 hPa | 0 mm | - | 208 W/m² | - |
| 1778070748 | 12.78° C | 77% | 1015.2 hPa | 0 mm | - | 246 W/m² | - |
| 1778070435 | 12.22° C | 80% | 1015 hPa | 0 mm | - | 793 W/m² | - |
| 1778070135 | 12.22° C | 79% | 1015.2 hPa | 0 mm | - | 740 W/m² | - |
| 1778069835 | 11.67° C | 82% | 1015.1 hPa | 0 mm | - | 729 W/m² | - |
| 1778069523 | 11.67° C | 83% | 1015.2 hPa | 0 mm | - | 279 W/m² | - |
| 1778069223 | 11.67° C | 83% | 1015.3 hPa | 0 mm | - | 257 W/m² | - |
| 1778068923 | 11.67° C | 84% | 1015.2 hPa | 0 mm | - | 379 W/m² | - |
| 1778068611 | 11.11° C | 82% | 1015.2 hPa | 0 mm | - | 298 W/m² | - |
| 1778068311 | 11.11° C | 83% | 1015.3 hPa | 0 mm | - | 219 W/m² | - |
| 1778068011 | 11.67° C | 85% | 1015.4 hPa | 0 mm | - | 309 W/m² | - |
| 1778067699 | 11.11° C | 85% | 1015.4 hPa | 0 mm | - | 252 W/m² | - |
| 1778067400 | 12.22° C | 84% | 1015.4 hPa | 0 mm | - | 242 W/m² | - |
| 1778067099 | 11.67° C | 84% | 1015.4 hPa | 0 mm | - | 348 W/m² | - |
| 1778066787 | 12.22° C | 85% | 1015.5 hPa | 0 mm | - | 819 W/m² | - |
| 1778066487 | 11.11° C | 89% | 1015.6 hPa | 0 mm | - | 776 W/m² | - |
| 1778066187 | 11.67° C | 88% | 1015.6 hPa | 0 mm | - | 197 W/m² | - |
| 1778065888 | 11.11° C | 90% | 1015.4 hPa | 0 mm | - | 189 W/m² | - |
| 1778065588 | 11.11° C | 89% | 1015.6 hPa | 0 mm | - | 235 W/m² | - |
| 1778065287 | 11.11° C | 87% | 1015.4 hPa | 0 mm | - | 757 W/m² | - |
| 1778064987 | 11.67° C | 88% | 1015.5 hPa | 0 mm | - | 231 W/m² | - |
| 1778064687 | 11.67° C | 90% | 1015.5 hPa | 0 mm | - | 834 W/m² | - |
| 1778064387 | 11.67° C | 89% | 1015.6 hPa | 0 mm | - | 802 W/m² | - |
| 1778064087 | 11.67° C | 90% | 1015.5 hPa | 0 mm | - | 635 W/m² | - |
* Rain latest hour (hover to see other rain measurements)
** Current wind speed in m/s (hover to see current wind gust speed)